Time,TemperatureF,DewpointF,PressureIn,WindDirection,WindDirectionDegrees,WindSpeedMPH,WindSpeedGustMPH,Humidity,HourlyPrecipIn,Conditions,Clouds,dailyrainin,SoftwareType,DateUTC
2013-09-29 00:14:00,60.7,55.0,30.16,ENE,69,0.0,2.0,82,0.00,,,0.00,weatherlink.com 1.10,2013-09-29 04:14:00,
2013-09-29 00:29:00,60.7,56.0,30.16,ENE,69,0.0,1.0,84,0.00,,,0.00,weatherlink.com 1.10,2013-09-29 04:29:00,
2013-09-29 00:44:00,60.4,57.0,30.16,ENE,69,0.0,1.0,87,0.00,,,0.00,weatherlink.com 1.10,2013-09-29 04:44:00,
2013-09-29 00:59:00,59.8,56.0,30.16,ENE,70,0.0,1.0,87,0.00,,,0.00,weatherlink.com 1.10,2013-09-29 04:59:00,
2013-09-29 01:14:00,59.6,56.0,30.16,ENE,70,1.0,2.0,87,0.00,,,0.00,weatherlink.com 1.10,2013-09-29 05:14:00,
2013-09-29 01:29:00,59.2,56.0,30.16,ENE,72,0.0,1.0,88,0.00,,,0.00,weatherlink.com 1.10,2013-09-29 05:29:00,
2013-09-29 01:44:00,59.1,56.0,30.16,ENE,72,0.0,1.0,89,0.00,,,0.00,weatherlink.com 1.10,2013-09-29 05:44:00,
2013-09-29 01:59:00,58.9,56.0,30.16,ENE,72,0.0,1.0,89,0.00,,,0.00,weatherlink.com 1.10,2013-09-29 05:59:00,
2013-09-29 02:14:00,58.7,56.0,30.16,ENE,72,0.0,1.0,89,0.00,,,0.00,weatherlink.com 1.10,2013-09-29 06:14:00,
2013-09-29 02:30:00,58.7,56.0,30.16,ENE,72,0.0,1.0,89,0.00,,,0.00,weatherlink.com 1.10,2013-09-29 06:30:00,
2013-09-29 02:45:00,58.7,55.0,30.16,ENE,72,0.0,1.0,88,0.00,,,0.00,weatherlink.com 1.10,2013-09-29 06:45:00,
2013-09-29 03:00:00,58.8,55.0,30.16,ENE,72,0.0,0.0,87,0.00,,,0.00,weatherlink.com 1.10,2013-09-29 07:00:00,
2013-09-29 03:15:00,58.8,55.0,30.15,ENE,72,0.0,0.0,88,0.00,,,0.00,weatherlink.com 1.10,2013-09-29 07:15:00,
2013-09-29 03:30:00,58.8,55.0,30.15,ENE,72,0.0,1.0,87,0.00,,,0.00,weatherlink.com 1.10,2013-09-29 07:30:00,
2013-09-29 03:45:00,58.8,55.0,30.15,ENE,72,0.0,1.0,87,0.00,,,0.00,weatherlink.com 1.10,2013-09-29 07:45:00,
2013-09-29 04:00:00,58.6,55.0,30.15,ENE,72,0.0,1.0,89,0.00,,,0.00,weatherlink.com 1.10,2013-09-29 08:00:00,
2013-09-29 04:15:00,58.3,56.0,30.15,ENE,72,0.0,0.0,90,0.00,,,0.00,weatherlink.com 1.10,2013-09-29 08:15:00,
2013-09-29 04:30:00,58.3,55.0,30.15,ENE,72,0.0,1.0,89,0.00,,,0.00,weatherlink.com 1.10,2013-09-29 08:30:00,
2013-09-29 04:45:00,58.1,55.0,30.14,ENE,72,0.0,0.0,90,0.00,,,0.00,weatherlink.com 1.10,2013-09-29 08:45:00,
2013-09-29 05:00:00,57.9,55.0,30.14,ENE,72,0.0,1.0,91,0.00,,,0.00,weatherlink.com 1.10,2013-09-29 09:00:00,
2013-09-29 05:15:00,57.7,55.0,30.13,ENE,72,0.0,1.0,89,0.00,,,0.00,weatherlink.com 1.10,2013-09-29 09:15:00,
2013-09-29 05:30:00,57.7,55.0,30.14,ENE,72,0.0,1.0,89,0.00,,,0.00,weatherlink.com 1.10,2013-09-29 09:30:00,
2013-09-29 05:45:00,57.6,55.0,30.13,ENE,72,0.0,1.0,90,0.00,,,0.00,weatherlink.com 1.10,2013-09-29 09:45:00,
2013-09-29 06:00:00,57.1,54.0,30.14,ESE,121,1.0,2.0,89,0.00,,,0.00,weatherlink.com 1.10,2013-09-29 10:00:00,
2013-09-29 06:15:00,56.6,54.0,30.14,NNE,33,0.0,2.0,91,0.00,,,0.00,weatherlink.com 1.10,2013-09-29 10:15:00,
2013-09-29 06:30:00,56.6,54.0,30.14,NNE,33,0.0,1.0,90,0.00,,,0.00,weatherlink.com 1.10,2013-09-29 10:30:00,
2013-09-29 06:45:00,56.6,54.0,30.15,NNE,33,0.0,1.0,89,0.00,,,0.00,weatherlink.com 1.10,2013-09-29 10:45:00,
2013-09-29 07:00:00,56.5,54.0,30.14,NNE,33,0.0,0.0,90,0.00,,,0.00,weatherlink.com 1.10,2013-09-29 11:00:00,
2013-09-29 07:15:00,56.0,53.0,30.15,NNE,33,0.0,0.0,90,0.00,,,0.00,weatherlink.com 1.10,2013-09-29 11:15:00,
2013-09-29 07:30:00,55.7,54.0,30.15,NNE,33,0.0,1.0,92,0.00,,,0.00,weatherlink.com 1.10,2013-09-29 11:30:00,
2013-09-29 07:45:00,55.7,54.0,30.14,NNE,33,0.0,0.0,93,0.00,,,0.00,weatherlink.com 1.10,2013-09-29 11:45:00,
2013-09-29 08:00:00,55.9,54.0,30.15,NNE,33,0.0,0.0,93,0.00,,,0.00,weatherlink.com 1.10,2013-09-29 12:00:00,
2013-09-29 08:15:00,56.4,55.0,30.15,North,354,0.0,1.0,93,0.00,,,0.00,weatherlink.com 1.10,2013-09-29 12:15:00,
2013-09-29 08:30:00,56.8,55.0,30.15,East,79,0.0,2.0,92,0.00,,,0.00,weatherlink.com 1.10,2013-09-29 12:30:00,
2013-09-29 08:45:00,57.7,55.0,30.15,ENE,60,0.0,1.0,90,0.00,,,0.00,weatherlink.com 1.10,2013-09-29 12:45:00,
2013-09-29 09:00:00,58.6,55.0,30.15,ENE,60,0.0,1.0,88,0.00,,,0.00,weatherlink.com 1.10,2013-09-29 13:00:00,
2013-09-29 09:15:00,60.0,56.0,30.15,East,89,2.0,5.0,85,0.00,,,0.00,weatherlink.com 1.10,2013-09-29 13:15:00,
2013-09-29 09:30:00,60.4,56.0,30.15,ESE,116,0.0,3.0,84,0.00,,,0.00,weatherlink.com 1.10,2013-09-29 13:30:00,
2013-09-29 09:45:00,60.6,55.0,30.16,ENE,72,2.0,5.0,82,0.00,,,0.00,weatherlink.com 1.10,2013-09-29 13:45:00,
2013-09-29 10:00:00,61.9,56.0,30.15,SSE,151,0.0,4.0,81,0.00,,,0.00,weatherlink.com 1.10,2013-09-29 14:00:00,
2013-09-29 10:15:00,63.3,56.0,30.15,ESE,112,0.0,5.0,77,0.00,,,0.00,weatherlink.com 1.10,2013-09-29 14:15:00,
2013-09-29 10:30:00,63.0,56.0,30.15,SSE,147,2.0,3.0,77,0.00,,,0.00,weatherlink.com 1.10,2013-09-29 14:30:00,
2013-09-29 10:45:00,63.9,56.0,30.14,ESE,109,0.0,2.0,75,0.00,,,0.00,weatherlink.com 1.10,2013-09-29 14:45:00,
2013-09-29 11:00:00,65.0,56.0,30.14,SE,130,3.0,5.0,72,0.00,,,0.00,weatherlink.com 1.10,2013-09-29 15:00:00,
2013-09-29 11:15:00,65.5,55.0,30.13,East,83,1.0,6.0,69,0.00,,,0.00,weatherlink.com 1.10,2013-09-29 15:15:00,
2013-09-29 11:30:00,66.0,56.0,30.13,SE,141,3.0,3.0,70,0.00,,,0.00,weatherlink.com 1.10,2013-09-29 15:30:00,
2013-09-29 11:45:00,65.5,55.0,30.12,South,179,0.0,6.0,68,0.00,,,0.00,weatherlink.com 1.10,2013-09-29 15:45:00,
2013-09-29 12:00:00,67.0,55.0,30.12,SE,135,2.0,4.0,65,0.00,,,0.00,weatherlink.com 1.10,2013-09-29 16:00:00,
2013-09-29 12:15:00,67.4,56.0,30.11,SSW,208,3.0,5.0,66,0.00,,,0.00,weatherlink.com 1.10,2013-09-29 16:15:00,
2013-09-29 12:31:00,67.5,55.0,30.11,South,173,1.0,7.0,65,0.00,,,0.00,weatherlink.com 1.10,2013-09-29 16:31:00,
2013-09-29 12:46:00,68.9,57.0,30.11,SW,232,1.0,4.0,66,0.00,,,0.00,weatherlink.com 1.10,2013-09-29 16:46:00,
2013-09-29 13:01:00,69.0,56.0,30.10,SW,226,3.0,6.0,63,0.00,,,0.00,weatherlink.com 1.10,2013-09-29 17:01:00,
2013-09-29 13:16:00,69.0,56.0,30.10,WNW,290,2.0,6.0,64,0.00,,,0.00,weatherlink.com 1.10,2013-09-29 17:16:00,
2013-09-29 13:31:00,68.8,56.0,30.09,North,354,2.0,5.0,65,0.00,,,0.00,weatherlink.com 1.10,2013-09-29 17:31:00,
2013-09-29 13:46:00,69.5,56.0,30.07,NW,314,1.0,4.0,63,0.00,,,0.00,weatherlink.com 1.10,2013-09-29 17:46:00,
2013-09-29 14:01:00,69.9,58.0,30.07,WSW,237,2.0,4.0,65,0.00,,,0.00,weatherlink.com 1.10,2013-09-29 18:01:00,
2013-09-29 14:16:00,70.4,57.0,30.06,NNE,21,1.0,4.0,63,0.00,,,0.00,weatherlink.com 1.10,2013-09-29 18:16:00,
2013-09-29 14:31:00,69.6,56.0,30.05,NNW,340,2.0,4.0,63,0.00,,,0.00,weatherlink.com 1.10,2013-09-29 18:31:00,
2013-09-29 14:46:00,71.5,57.0,30.04,SSE,154,1.0,5.0,60,0.00,,,0.00,weatherlink.com 1.10,2013-09-29 18:46:00,
2013-09-29 15:01:00,71.9,57.0,30.03,South,177,5.0,6.0,60,0.00,,,0.00,weatherlink.com 1.10,2013-09-29 19:01:00,
2013-09-29 15:16:00,72.3,57.0,30.02,SSE,164,2.0,9.0,59,0.00,,,0.00,weatherlink.com 1.10,2013-09-29 19:16:00,
2013-09-29 15:31:00,72.8,57.0,30.02,SSE,149,0.0,6.0,58,0.00,,,0.00,weatherlink.com 1.10,2013-09-29 19:31:00,
2013-09-29 15:46:00,73.5,58.0,30.02,SE,133,3.0,6.0,59,0.00,,,0.00,weatherlink.com 1.10,2013-09-29 19:46:00,
2013-09-29 16:01:00,71.7,58.0,30.02,SSW,203,2.0,3.0,63,0.00,,,0.00,weatherlink.com 1.10,2013-09-29 20:01:00,
2013-09-29 16:16:00,71.0,58.0,30.02,South,183,0.0,3.0,64,0.00,,,0.00,weatherlink.com 1.10,2013-09-29 20:16:00,
2013-09-29 16:31:00,71.4,59.0,30.01,South,187,2.0,3.0,65,0.00,,,0.00,weatherlink.com 1.10,2013-09-29 20:31:00,
2013-09-29 16:46:00,70.9,58.0,30.01,South,184,1.0,3.0,64,0.00,,,0.00,weatherlink.com 1.10,2013-09-29 20:46:00,
2013-09-29 17:01:00,72.2,58.0,30.01,SSW,199,4.0,5.0,62,0.00,,,0.00,weatherlink.com 1.10,2013-09-29 21:01:00,
2013-09-29 17:16:00,72.7,59.0,30.01,SSE,166,0.0,3.0,63,0.00,,,0.00,weatherlink.com 1.10,2013-09-29 21:16:00,
2013-09-29 17:31:00,71.8,59.0,30.02,SSE,154,0.0,4.0,64,0.00,,,0.00,weatherlink.com 1.10,2013-09-29 21:31:00,
2013-09-29 17:46:00,70.7,60.0,30.02,SSE,154,1.0,2.0,68,0.00,,,0.00,weatherlink.com 1.10,2013-09-29 21:46:00,
2013-09-29 18:01:00,70.1,60.0,30.02,SSE,154,0.0,2.0,70,0.00,,,0.00,weatherlink.com 1.10,2013-09-29 22:01:00,
2013-09-29 18:16:00,69.7,61.0,30.02,SSE,154,0.0,1.0,75,0.00,,,0.00,weatherlink.com 1.10,2013-09-29 22:16:00,
2013-09-29 18:31:00,69.1,60.0,30.02,SSE,154,1.0,1.0,73,0.00,,,0.00,weatherlink.com 1.10,2013-09-29 22:31:00,
2013-09-29 18:46:00,67.9,60.0,30.02,SE,139,0.0,3.0,75,0.00,,,0.00,weatherlink.com 1.10,2013-09-29 22:46:00,
2013-09-29 19:01:00,67.4,60.0,30.02,SE,139,0.0,1.0,78,0.00,,,0.00,weatherlink.com 1.10,2013-09-29 23:01:00,
2013-09-29 19:16:00,66.9,60.0,30.02,SE,139,0.0,1.0,78,0.00,,,0.00,weatherlink.com 1.10,2013-09-29 23:16:00,
2013-09-29 19:31:00,66.2,61.0,30.03,SE,139,0.0,1.0,82,0.00,,,0.00,weatherlink.com 1.10,2013-09-29 23:31:00,
2013-09-29 19:46:00,65.4,61.0,30.03,SE,139,0.0,0.0,85,0.00,,,0.00,weatherlink.com 1.10,2013-09-29 23:46:00,
2013-09-29 20:01:00,65.0,60.0,30.02,SE,139,0.0,1.0,85,0.00,,,0.00,weatherlink.com 1.10,2013-09-30 00:01:00,
2013-09-29 20:16:00,64.3,60.0,30.03,SE,139,0.0,0.0,87,0.00,,,0.00,weatherlink.com 1.10,2013-09-30 00:16:00,
2013-09-29 20:31:00,64.1,60.0,30.03,SE,139,0.0,2.0,87,0.00,,,0.00,weatherlink.com 1.10,2013-09-30 00:31:00,
2013-09-29 20:46:00,63.4,61.0,30.03,SE,139,1.0,2.0,90,0.00,,,0.00,weatherlink.com 1.10,2013-09-30 00:46:00,
2013-09-29 21:01:00,63.0,60.0,30.04,SE,139,0.0,0.0,90,0.00,,,0.00,weatherlink.com 1.10,2013-09-30 01:01:00,
2013-09-29 21:16:00,62.4,60.0,30.03,SE,139,1.0,2.0,91,0.00,,,0.00,weatherlink.com 1.10,2013-09-30 01:16:00,
2013-09-29 21:31:00,61.8,60.0,30.04,SE,139,0.0,1.0,92,0.00,,,0.00,weatherlink.com 1.10,2013-09-30 01:31:00,
2013-09-29 21:46:00,62.0,60.0,30.04,SE,139,1.0,1.0,92,0.00,,,0.00,weatherlink.com 1.10,2013-09-30 01:46:00,
2013-09-29 22:01:00,61.8,60.0,30.03,SE,139,0.0,1.0,93,0.00,,,0.00,weatherlink.com 1.10,2013-09-30 02:01:00,
2013-09-29 22:16:00,61.9,60.0,30.03,SE,139,0.0,0.0,93,0.00,,,0.00,weatherlink.com 1.10,2013-09-30 02:16:00,
2013-09-29 22:31:00,62.0,60.0,30.03,SE,139,0.0,1.0,93,0.00,,,0.00,weatherlink.com 1.10,2013-09-30 02:31:00,
2013-09-29 22:46:00,61.6,60.0,30.03,SE,139,0.0,1.0,93,0.00,,,0.00,weatherlink.com 1.10,2013-09-30 02:46:00,
2013-09-29 23:01:00,61.7,60.0,30.03,SE,139,1.0,1.0,93,0.00,,,0.00,weatherlink.com 1.10,2013-09-30 03:01:00,
2013-09-29 23:16:00,61.6,60.0,30.03,SE,139,0.0,1.0,93,0.00,,,0.00,weatherlink.com 1.10,2013-09-30 03:16:00,
2013-09-29 23:31:00,61.9,60.0,30.03,SE,139,0.0,1.0,93,0.00,,,0.00,weatherlink.com 1.10,2013-09-30 03:31:00,
2013-09-29 23:46:00,62.1,60.0,30.03,SE,139,0.0,0.0,91,0.00,,,0.00,weatherlink.com 1.10,2013-09-30 03:46:00,